EW9798 Weather Reports


Display with metric or nautical units.
time (UTC)temp
F
wind
direction
speed
MPH
gust
MPH
rain 1hr
in
rain 24hr
in
rain mn
in
humidity
%
barometer
mb
20260831064532 54 117 1.0 4.0 0.00 0.00 0.00 79 1017.1
20260831063031 53 135 4.0 5.0 0.00 0.00 0.00 81 1017.1
20260831054530 54 117 1.0 4.0 0.00 0.00 0.00 78 1017.3
20260831053030 55 138 3.0 5.0 0.00 0.00 0.00 79 1017.3
20260831044529 57 135 2.0 5.0 0.00 0.00 0.00 73 1017.3
20260831040029 59 120 4.0 6.0 0.00 0.00 0.00 72 1017.3
20260831034528 59 113 4.0 6.0 0.00 0.00 0.00 72 1017.2
20260831033029 60 120 3.0 5.0 0.00 0.00 0.00 70 1017.0
20260831031531 62 99 1.0 3.0 0.00 0.00 0.00 68 1016.8
20260831030029 63 75 3.0 6.0 0.00 0.00 0.00 65 1016.8
20260831023030 67 37 2.0 5.0 0.00 0.00 0.00 60 1016.7
20260831021609 68 16 3.0 6.0 0.00 0.00 0.00 57 1016.7
20260831020033 69 337 3.0 7.0 0.00 0.00 0.00 54 1016.6
20260831011530 73 282 3.0 8.0 0.00 0.00 0.00 47 1016.9
20260831010032 74 286 4.0 10.0 0.00 0.00 0.00 46 1017.0
20260831004531 73 283 4.0 10.0 0.00 0.00 0.00 47 1017.0
20260831003029 74 282 5.0 11.0 0.00 0.00 0.00 45 1017.0
20260831001529 73 298 5.0 15.0 0.00 0.00 0.00 46 1017.0
20260831000032 73 313 6.0 16.0 0.00 0.00 0.00 45 1017.1
20260830234531 72 301 6.0 17.0 0.00 0.00 0.00 44 1017.3
20260830233030 72 319 7.0 16.0 0.00 0.00 0.00 43 1017.4
20260830231532 72 327 5.0 16.0 0.00 0.00 0.00 45 1017.5
20260830224531 72 346 6.0 12.0 0.00 0.00 0.00 47 1017.8
20260830223030 72 345 5.0 12.0 0.00 0.00 0.00 48 1018.2
20260830221529 72 339 6.0 13.0 0.00 0.00 0.00 49 1018.4
20260830220029 71 324 5.0 15.0 0.00 0.00 0.00 49 1018.5
20260830214530 71 323 6.0 16.0 0.00 0.00 0.00 49 1018.8
20260830213030 71 327 7.0 13.0 0.00 0.00 0.00 49 1019.0
20260830203031 69 339 5.0 11.0 0.00 0.00 0.00 51 1019.6
20260830201530 69 331 5.0 11.0 0.00 0.00 0.00 51 1019.8
20260830200032 69 326 4.0 10.0 0.00 0.00 0.00 52 1020.0
20260830194529 68 336 4.0 10.0 0.00 0.00 0.00 54 1020.1
20260830193032 67 346 4.0 9.0 0.00 0.00 0.00 55 1020.2
20260830191605 67 327 4.0 11.0 0.00 0.00 0.00 57 1020.4
20260830190146 66 304 3.0 7.0 0.00 0.00 0.00 58 1020.6
20260830184529 65 342 5.0 9.0 0.00 0.00 0.00 59 1020.8
20260830183031 64 349 3.0 8.0 0.00 0.00 0.00 61 1020.9
20260830181529 64 345 4.0 10.0 0.00 0.00 0.00 62 1021.0
20260830180106 62 23 5.0 9.0 0.00 0.00 0.00 67 1021.1
20260830173031 61 359 4.0 12.0 0.00 0.00 0.00 69 1021.2
20260830171606 60 9 4.0 9.0 0.00 0.00 0.00 71 1021.2
20260830170033 59 11 4.0 8.0 0.00 0.00 0.00 75 1021.3
20260830164533 58 31 2.0 7.0 0.00 0.00 0.00 79 1021.5
20260830161529 55 50 1.0 4.0 0.00 0.00 0.00 85 1021.9
20260830154534 53 60 3.0 6.0 0.00 0.00 0.00 93 1022.2
20260830153029 51 70 4.0 7.0 0.00 0.00 0.00 95 1022.2
20260830151532 48 111 2.0 5.0 0.00 0.00 0.00 95 1022.2
20260830150031 46 135 1.0 3.0 0.00 0.00 0.00 95 1022.2
20260830144610 44 135 0.0 0.0 0.00 0.00 0.00 95 1022.2
20260830140032 44 112 0.0 0.0 0.00 0.00 0.00 94 1021.9
20260830134530 44 112 0.0 2.0 0.00 0.00 0.00 94 1021.8
20260830133032 44 147 2.0 5.0 0.00 0.00 0.00 94 1021.7
20260830131531 45 139 2.0 5.0 0.00 0.00 0.00 93 1021.5
20260830124531 45 146 2.0 5.0 0.00 0.00 0.00 93 1021.4
20260830123031 45 116 4.0 7.0 0.00 0.00 0.00 94 1021.4
20260830121532 45 112 3.0 6.0 0.00 0.00 0.00 94 1021.4
20260830120109 45 97 2.0 4.0 0.00 0.00 0.00 94 1021.4
20260830114530 45 93 3.0 6.0 0.00 0.00 0.00 94 1021.3
20260830113105 45 95 2.0 4.0 0.00 0.00 0.00 93 1021.3
20260830111529 45 107 1.0 4.0 0.00 0.00 0.00 93 1021.3
20260830110107 46 123 1.0 4.0 0.00 0.00 0.00 93 1021.3
20260830104530 46 134 2.0 4.0 0.00 0.00 0.00 93 1021.3
20260830103109 46 124 4.0 6.0 0.00 0.00 0.00 93 1021.3
20260830101530 46 35 0.0 4.0 0.00 0.00 0.00 93 1021.3
20260830100106 46 108 3.0 7.0 0.00 0.00 0.00 93 1021.2
20260830094533 46 111 3.0 6.0 0.00 0.00 0.00 93 1021.3
20260830093030 46 116 3.0 5.0 0.00 0.00 0.00 92 1021.2
20260830090033 46 154 0.0 4.0 0.00 0.00 0.00 90 1021.1
20260830084645 47 154 0.0 4.0 0.00 0.00 0.00 90 1021.1
20260830083031 47 156 2.0 5.0 0.00 0.00 0.00 89 1021.3
20260830081529 48 135 1.0 4.0 0.00 0.00 0.00 88 1021.3
20260830080030 49 154 2.0 5.0 0.00 0.00 0.00 88 1021.4
20260830074530 49 117 4.0 7.0 0.00 0.00 0.00 88 1021.4
20260830073033 48 112 5.0 7.0 0.00 0.00 0.00 87 1021.3